This is the latest recevied weather packets stored in our database for station/object EA5AER-5. If no packets are shown the sender has not sent any weather packets the latest 10 day(s).
| Time | Temp. | Humidity | Pressure | Rain* | Wind** | Luminosity | Snow |
|---|---|---|---|---|---|---|---|
| 1777587405 | 18.89° C | 83% | 1015.7 hPa | 0 mm | - | 0 W/m² | - |
| 1777586162 | 18.89° C | 84% | 1015.7 hPa | 0 mm | - | 0 W/m² | - |
| 1777584961 | 18.89° C | 84% | 1015.6 hPa | 0 mm | - | 0 W/m² | - |
| 1777583804 | 18.89° C | 83% | 1014.9 hPa | 0 mm | - | 0 W/m² | - |
| 1777582587 | 18.89° C | 83% | 1014.9 hPa | 0 mm | - | 0 W/m² | - |
| 1777581305 | 18.89° C | 83% | 1014.9 hPa | 0 mm | - | 0 W/m² | - |
| 1777580084 | 18.89° C | 82% | 1014.3 hPa | 0 mm | - | 0 W/m² | - |
| 1777578990 | 18.89° C | 82% | 1014.3 hPa | 0 mm | - | 0 W/m² | - |
| 1777577755 | 19.44° C | 78% | 1013.7 hPa | 0 mm | - | 0 W/m² | - |
| 1777576488 | 19.44° C | 78% | 1013.7 hPa | 0 mm | - | 0 W/m² | - |
| 1777575284 | 19.44° C | 79% | 1013.1 hPa | 0 mm | - | 12 W/m² | - |
| 1777574185 | 19.44° C | 79% | 1013.1 hPa | 0 mm | - | 12 W/m² | - |
| 1777572913 | 20° C | 76% | 1012.7 hPa | 0 mm | - | 83 W/m² | - |
| 1777571711 | 20° C | 76% | 1012.7 hPa | 0 mm | - | 107 W/m² | - |
| 1777570410 | 20° C | 76% | 1012.8 hPa | 0 mm | - | 248 W/m² | - |
| 1777569203 | 20° C | 76% | 1012.8 hPa | 0 mm | - | 248 W/m² | - |
| 1777568092 | 20° C | 76% | 1012.8 hPa | 0 mm | - | 248 W/m² | - |
| 1777566837 | 20° C | 78% | 1013 hPa | 0 mm | - | 236 W/m² | - |
| 1777565634 | 20° C | 78% | 1012.9 hPa | 0 mm | - | 394 W/m² | - |
| 1777564393 | 20° C | 78% | 1012.9 hPa | 0 mm | - | 394 W/m² | - |
| 1777563239 | 20° C | 78% | 1012.9 hPa | 0 mm | - | 596 W/m² | - |
| 1777562136 | 20° C | 78% | 1012.9 hPa | 0 mm | - | 596 W/m² | - |
| 1777560945 | 20.56° C | 76% | 1013.2 hPa | 0 mm | - | 749 W/m² | - |
| 1777559712 | 20.56° C | 76% | 1013.2 hPa | 0 mm | - | 749 W/m² | - |
| 1777558539 | 20.56° C | 76% | 1013.2 hPa | 0 mm | - | 749 W/m² | - |
* Rain latest hour (hover to see other rain measurements)
** Current wind speed in m/s (hover to see current wind gust speed)